• In United Kingdom
  • List of Countries
  • For 7 days
  • Water Temperature
  • Satellite Maps
  • Weather Map
  • Weather Widgets
  • user-avatar
    Login

    Hourly Weather Gagra

    Today, 21 November, Tuesday

    Time Temperature Precipitation Wind Pressure Humidity
    00:00 +12°C° 0 mm 5 mps 726 mmHg 58%
    01:00 +13°C° 0.1 mm 5 mps 726 mmHg 58%
    02:00 +13°C° 0.1 mm 5 mps 726 mmHg 58%
    03:00 +13°C° 0.1 mm 5 mps 726 mmHg 58%
    04:00 +13°C° 0.2 mm 5 mps 725 mmHg 61%
    05:00 +13°C° 0.2 mm 5 mps 725 mmHg 64%
    06:00 +13°C° 0.2 mm 5 mps 724 mmHg 68%
    07:00 +13°C° 0.2 mm 5 mps 724 mmHg 67%
    08:00 +13°C° 0.2 mm 6 mps 724 mmHg 67%
    09:00 +13°C° 0.2 mm 6 mps 723 mmHg 66%
    10:00 +15°C° 0 mm 6 mps 723 mmHg 61%
    11:00 +16°C° 0 mm 6 mps 722 mmHg 55%
    12:00 +17°C° 0 mm 6 mps 722 mmHg 49%
    13:00 +17°C° 0.1 mm 6 mps 722 mmHg 53%
    14:00 +16°C° 0.1 mm 5 mps 722 mmHg 57%
    15:00 +15°C° 0.1 mm 5 mps 721 mmHg 61%
    16:00 +14°C° 2.2 mm 6 mps 722 mmHg 71%
    17:00 +12°C° 2.2 mm 7 mps 723 mmHg 81%
    18:00 +10°C° 2.2 mm 8 mps 724 mmHg 91%
    19:00 +9°C° 3.1 mm 8 mps 725 mmHg 93%
    20:00 +9°C° 3.1 mm 8 mps 726 mmHg 94%
    21:00 +7°C° 3.1 mm 9 mps 728 mmHg 95%
    22:00 +6°C° 0.7 mm 8 mps 729 mmHg 94%
    23:00 +6°C° 0.7 mm 7 mps 730 mmHg 93%

    Tomorrow, 22 November, Wednesday

    Time Temperature Precipitation Wind Pressure Humidity
    00:00 +5°C° 0.7 mm 7 mps 731 mmHg 92%
    01:00 +5°C° 0.3 mm 6 mps 731 mmHg 91%
    02:00 +4°C° 0.3 mm 6 mps 732 mmHg 90%
    03:00 +5°C° 0.3 mm 5 mps 732 mmHg 89%
    04:00 +3°C° 0.1 mm 5 mps 732 mmHg 88%
    05:00 +4°C° 0.1 mm 4 mps 733 mmHg 86%
    06:00 +3°C° 0.1 mm 4 mps 733 mmHg 85%
    07:00 +3°C° 0 mm 4 mps 733 mmHg 81%
    08:00 +3°C° 0 mm 4 mps 734 mmHg 78%
    09:00 +3°C° 0 mm 4 mps 734 mmHg 74%
    10:00 +4°C° 0 mm 3 mps 734 mmHg 69%
    11:00 +5°C° 0 mm 3 mps 734 mmHg 65%
    12:00 +5°C° 0 mm 3 mps 734 mmHg 60%
    13:00 +5°C° 0 mm 3 mps 734 mmHg 61%
    14:00 +5°C° 0 mm 3 mps 734 mmHg 62%
    15:00 +6°C° 0 mm 2 mps 734 mmHg 64%
    16:00 +4°C° 0.2 mm 2 mps 734 mmHg 68%
    17:00 +3°C° 0.2 mm 2 mps 734 mmHg 72%
    18:00 +2°C° 0.2 mm 2 mps 734 mmHg 77%
    19:00 +2°C° 1.1 mm 2 mps 734 mmHg 79%
    20:00 +1°C° 1.1 mm 3 mps 733 mmHg 82%
    21:00 +2°C° 1.1 mm 3 mps 733 mmHg 84%
    22:00 +1°C° 2.9 mm 4 mps 733 mmHg 86%
    23:00 +1°C° 2.9 mm 5 mps 733 mmHg 89%

    Day after tomorrow, 23 November, Thursday

    Time Temperature Precipitation Wind Pressure Humidity
    00:00 +1°C° 2.9 mm 5 mps 732 mmHg 91%
    01:00 +1°C° 3.2 mm 5 mps 732 mmHg 92%
    02:00 +1°C° 3.2 mm 4 mps 732 mmHg 92%
    03:00 +2°C° 3.2 mm 3 mps 732 mmHg 93%
    04:00 +1°C° 0.4 mm 3 mps 732 mmHg 91%
    05:00 +1°C° 0.4 mm 3 mps 732 mmHg 90%
    06:00 0°C° 0.4 mm 3 mps 732 mmHg 89%
    07:00 +1°C° 0.1 mm 3 mps 733 mmHg 88%
    08:00 +1°C° 0.1 mm 3 mps 733 mmHg 87%
    09:00 +1°C° 0.1 mm 3 mps 733 mmHg 87%
    10:00 +2°C° 0 mm 3 mps 733 mmHg 83%
    11:00 +3°C° 0 mm 2 mps 734 mmHg 79%
    12:00 +4°C° 0 mm 2 mps 734 mmHg 75%
    13:00 +3°C° 0 mm 2 mps 734 mmHg 75%
    14:00 +3°C° 0 mm 2 mps 734 mmHg 76%
    15:00 +3°C° 0 mm 2 mps 734 mmHg 77%
    16:00 +1°C° 0 mm 2 mps 735 mmHg 79%
    17:00 -1°C° 0 mm 3 mps 735 mmHg 80%
    18:00 -4°C° 0 mm 3 mps 736 mmHg 82%
    19:00 -5°C° 0 mm 3 mps 736 mmHg 81%
    20:00 -5°C° 0 mm 3 mps 737 mmHg 81%
    21:00 -6°C° 0 mm 3 mps 737 mmHg 80%
    22:00 -6°C° 0 mm 3 mps 738 mmHg 78%
    23:00 -6°C° 0 mm 3 mps 738 mmHg 76%

    24 November, Friday

    Time Temperature Precipitation Wind Pressure Humidity
    00:00 -7°C° 0 mm 3 mps 738 mmHg 73%
    01:00 -7°C° 0 mm 3 mps 738 mmHg 73%
    02:00 -7°C° 0 mm 3 mps 738 mmHg 72%
    03:00 -6°C° 0 mm 3 mps 738 mmHg 72%
    04:00 -6°C° 0 mm 3 mps 738 mmHg 73%
    05:00 -5°C° 0 mm 3 mps 738 mmHg 75%
    06:00 -4°C° 0 mm 3 mps 738 mmHg 76%
    07:00 -2°C° 0.2 mm 3 mps 738 mmHg 79%
    08:00 -1°C° 0.2 mm 3 mps 738 mmHg 81%
    09:00 0°C° 0.2 mm 3 mps 739 mmHg 84%
    10:00 0°C° 0.5 mm 3 mps 738 mmHg 85%
    11:00 +1°C° 0.5 mm 3 mps 738 mmHg 85%
    12:00 0°C° 0.5 mm 4 mps 738 mmHg 86%
    13:00 +1°C° 0.8 mm 3 mps 738 mmHg 87%
    14:00 +1°C° 0.8 mm 3 mps 738 mmHg 88%
    15:00 +1°C° 0.8 mm 3 mps 738 mmHg 88%
    16:00 +1°C° 0.8 mm 3 mps 738 mmHg 89%
    17:00 0°C° 0.8 mm 3 mps 738 mmHg 90%
    18:00 0°C° 0.8 mm 3 mps 738 mmHg 91%
    19:00 0°C° 0.5 mm 3 mps 738 mmHg 91%
    20:00 0°C° 0.5 mm 3 mps 739 mmHg 90%
    21:00 -1°C° 0.5 mm 2 mps 739 mmHg 90%
    22:00 -2°C° 0.1 mm 2 mps 739 mmHg 89%
    23:00 -2°C° 0.1 mm 2 mps 740 mmHg 88%

    25 November, Saturday

    Time Temperature Precipitation Wind Pressure Humidity
    00:00 -3°C° 0.1 mm 2 mps 740 mmHg 87%
    01:00 -4°C° 0 mm 2 mps 740 mmHg 86%
    02:00 -4°C° 0 mm 2 mps 741 mmHg 84%
    03:00 -5°C° 0 mm 2 mps 741 mmHg 83%
    04:00 -5°C° 0 mm 2 mps 741 mmHg 83%
    05:00 -5°C° 0 mm 2 mps 742 mmHg 82%
    06:00 -5°C° 0 mm 2 mps 742 mmHg 81%
    07:00 -4°C° 0 mm 2 mps 742 mmHg 80%
    08:00 -3°C° 0 mm 2 mps 743 mmHg 79%
    09:00 -1°C° 0 mm 2 mps 743 mmHg 78%
    10:00 +2°C° 0 mm 1 mps 743 mmHg 77%
    11:00 +3°C° 0 mm 1 mps 743 mmHg 76%
    12:00 +5°C° 0 mm 1 mps 743 mmHg 75%
    13:00 +5°C° 0 mm 1 mps 743 mmHg 79%
    14:00 +5°C° 0 mm 1 mps 743 mmHg 82%
    15:00 +4°C° 0 mm 1 mps 743 mmHg 85%
    16:00 +3°C° 0 mm 1 mps 743 mmHg 87%
    17:00 +2°C° 0 mm 1 mps 743 mmHg 88%
    18:00 +1°C° 0 mm 1 mps 743 mmHg 90%
    19:00 +1°C° 0 mm 1 mps 743 mmHg 88%
    20:00 +1°C° 0 mm 1 mps 743 mmHg 87%
    21:00 0°C° 0 mm 1 mps 742 mmHg 85%
    22:00 0°C° 0 mm 1 mps 743 mmHg 84%
    23:00 -2°C° 0 mm 2 mps 743 mmHg 83%

    26 November, Sunday

    Time Temperature Precipitation Wind Pressure Humidity
    00:00 -2°C° 0 mm 2 mps 743 mmHg 81%
    01:00 -2°C° 0.2 mm 2 mps 742 mmHg 81%
    02:00 -2°C° 0.2 mm 2 mps 742 mmHg 81%
    03:00 -2°C° 0.2 mm 2 mps 742 mmHg 81%
    04:00 -2°C° 0.3 mm 2 mps 742 mmHg 82%
    05:00 -2°C° 0.3 mm 2 mps 742 mmHg 82%
    06:00 -2°C° 0.3 mm 2 mps 742 mmHg 83%
    07:00 -2°C° 0.3 mm 2 mps 742 mmHg 84%
    08:00 -1°C° 0.3 mm 2 mps 742 mmHg 85%
    09:00 +1°C° 0.3 mm 2 mps 742 mmHg 86%
    10:00 0°C° 0.5 mm 3 mps 742 mmHg 85%
    11:00 +1°C° 0.5 mm 3 mps 742 mmHg 85%
    12:00 +2°C° 0.5 mm 3 mps 742 mmHg 84%
    13:00 +2°C° 0.8 mm 3 mps 742 mmHg 85%
    14:00 +1°C° 0.8 mm 4 mps 741 mmHg 85%
    15:00 +1°C° 0.8 mm 4 mps 741 mmHg 85%
    16:00 +1°C° 0.9 mm 4 mps 741 mmHg 85%
    17:00 0°C° 0.9 mm 5 mps 741 mmHg 84%
    18:00 -1°C° 0.9 mm 5 mps 742 mmHg 84%
    19:00 -1°C° 0.4 mm 5 mps 742 mmHg 83%
    20:00 -2°C° 0.4 mm 5 mps 742 mmHg 82%
    21:00 -3°C° 0.4 mm 6 mps 742 mmHg 80%
    22:00 -4°C° 0 mm 5 mps 742 mmHg 78%
    23:00 -4°C° 0 mm 5 mps 742 mmHg 76%
    Show more